CAPE
941 1293 898 112 196 507 239 307 378 724 370 251 267 1019 802 404 243 254 296 272 276 182 198 204 253 254 261 268 284 481 326 430 269 252 308 538 287 416 339 236 282 253 239
1062 1081 789 379 165 744 515 479 547 605 579 305 292 198 289 277 172 214 166 207 153 119 103 97 47 54 176 261 429 358 695 648 317 197 223 331 311 456 213 174 147 130 130
1408 596 666 686 963 961 664 740 613 638 432 327 270 527 286 55 42 52 58 42 27 30 24 34 29 62 46 49 138 229 377 386 364 216 153 261 233 266 384 130 73 72 107
1207 738 647 627 843 919 1224 1015 795 560 370 207 72 84 141 125 35 59 50 8 29 36 27 5 6 6 21 5 33 38 115 75 125 122 78 109 129 230 326 202 92 54 63
1236 1040 963 615 942 551 1073 888 789 556 422 208 29 128 82 11 6 9 15 14 26 19 14 15 16 21 28 9 9 12 20 38 50 70 74 71 118 143 213 190 196 92 73
808 1468 1182 766 823 505 827 584 747 509 366 241 177 124 122 15 17 15 27 34 30 34 28 19 11 30 25 20 27 12 5 25 85 60 95 93 107 99 67 57 38 51 10
1229 1080 698 868 809 595 435 474 622 416 284 173 26 28 62 1 0 3 3 34 1 7 1 2 5 12 7 5 8 2 12 43 68 74 69 89 70 76 63 11 10 14 4
1450 1036 667 621 389 677 483 430 434 230 62 0 6 0 0 0 0 20 45 21 0 0 0 0 0 0 1 17 17 54 45 50 54 45 47 48 34 35 34 34 27 18 26
1550 1070 540 459 212 118 205 193 54 22 6 0 0 0 7 20 10 6 11 6 0 1 3 7 3 14 13 36 44 69 44 52 62 53 49 60 87 87 73 60 56 34 30
731 340 158 80 79 83 85 63 62 72 1 1 0 0 0 13 20 4 2 16 48 47 26 31 7 20 32 47 32 38 13 21 45 44 63 32 15 4 17 0 4 17 13
667 518 168 97 79 65 89 98 58 54 33 52 42 2 0 2 1 2 1 1 13 23 26 14 10 45 40 9 16 10 13 17 18 20 1 5 1 0 1 1 1 1 0
163 230 113 76 76 44 24 49 60 65 55 36 17 34 26 19 18 20 29 22 10 24 7 18 17 26 6 47 24 15 25 10 6 2 1 0 0 0 0 0 0 0 0
178 79 89 72 84 19 14 22 28 8 22 18 36 24 21 16 25 10 0 1 6 2 4 8 12 11 1 2 3 0 1 0 0 1 0 0 0 0 0 5 10 12 5
41 53 45 100 70 29 4 0 7 11 47 27 15 38 7 6 4 0 0 1 0 2 1 11 4 6 3 0 0 0 0 0 0 0 0 0 0 0 0 0 0 0 0
44 31 19 14 19 13 11 9 3 2 4 16 5 1 4 2 0 2 0 0 0 0 0 0 2 2 2 3 0 0 0 0 0 0 0 0 0 0 0 0 0 0 0
11 2 1 4 10 14 4 5 3 1 0 0 0 0 0 0 0 0 0 0 0 0 0 2 8 5 0 0 0 0 0 0 0 0 0 0 0 0 0 0 0 0 0
14 0 0 0 0 2 0 0 0 0 0 0 0 0 0 0 0 0 0 0 0 0 0 0 0 0 0 0 0 0 0 0 0 0 0 0 0 0 0 0 0 0 0
0 0 0 0 0 0 0 0 0 0 0 0 0 0 0 0 0 0 0 0 0 0 0 0 2 11 31 29 21 0 0 0 0 0 0 0 0 0 0 0 0 0 0
0 0 0 4 4 6 8 7 3 1 0 0 0 0 0 0 0 0 0 0 0 0 0 2 2 5 5 0 0 17 6 0 0 2 0 0 0 0 0 0 0 0 0
5 3 2 0 0 9 12 13 10 22 31 0 0 0 0 0 0 0 0 0 0 0 0 0 5 1 2 0 20 13 18 20 25 5 0 0 0 0 0 0 0 3 8
0 0 0 9 19 1 0 4 10 1 21 2 0 0 0 0 0 0 0 0 0 0 0 0 0 0 9 21 7 5 14 11 9 0 0 0 0 0 0 0 0 1 5
8 7 13 9 0 5 14 5 3 1 9 0 0 0 0 0 0 0 0 0 0 0 0 0 0 0 0 1 1 9 0 24 4 0 0 0 0 0 0 0 0 0 0
34 35 15 14 9 0 0 0 4 6 16 0 0 0 0 0 0 0 0 0 0 0 0 0 0 2 5 15 14 26 12 15 0 0 0 0 0 0 0 0 0 0 0
22 3 0 25 7 5 5 14 23 1 0 0 0 0 0 0 0 0 0 0 0 0 11 5 3 0 1 0 2 11 0 0 0 0 0 0 0 0 0 0 0 0 0
1 25 0 40 14 14 18 24 31 0 0 0 0 0 0 0 0 0 0 0 0 11 2 1 1 0 0 0 0 0 0 0 0 0 0 0 0 0 0 0 0 0 0
0 1 0 8 33 20 29 12 10 3 0 0 0 0 0 0 0 0 0 0 0 6 7 1 3 0 0 0 0 0 0 0 0 0 0 0 0 0 0 0 0 0 0
CIN
-41 -4 -7 -57 -17 -1 -10 -14 -19 -5 -18 -38 -22 -0 -0 -15 -24 -13 -11 -21 -19 -31 -24 -32 -23 -33 -46 -42 -59 -52 -39 -37 -41 -83 -82 -67 -57 -23 -68 -25 -27 -18 -24
-28 -2 -17 -24 -31 -0 -3 -1 -6 -5 -5 -9 -16 -16 -14 -5 -9 -10 -11 -9 -20 -26 -35 -7 -9 -25 -53 -56 -33 -42 -42 -35 -70 -44 -52 -41 -56 -30 -15 -25 -23 -21 -25
-2 -29 -7 -10 -2 -0 -1 -0 -1 -1 -4 -7 -14 -1 -0 -12 -7 -5 -3 -1 -0 -0 -0 -3 -5 -3 -13 -12 -65 -75 -71 -49 -51 -69 -56 -34 -31 -20 -11 -27 -56 -22 -27
-1 -15 -18 -9 -4 -4 -1 -0 -0 -0 -0 -1 -29 -9 -4 -1 -14 -0 -0 -3 -0 -0 -0 -0 -3 -0 -6 -3 -26 -21 -30 -23 -63 -38 -38 -65 -39 -26 -12 -48 -34 -35 -30
-5 -7 -4 -20 -0 -8 -2 -1 -0 -0 -1 -3 -21 -1 -5 -28 -25 -15 -8 -3 -0 -0 -1 -0 -0 -9 -14 -0 -31 -0 -4 -77 -65 -29 -27 -12 -16 -25 -5 -3 -16 -30 -31
-4 -11 -4 -0 -9 -9 -1 -1 -0 -1 -9 -2 -1 -0 -0 -2 -0 -0 -0 -0 -0 -0 -0 -0 -0 -0 -0 -0 -2 -2 -1 -16 -11 -14 -12 -21 -0 -0 -16 -14 -0 -10 -21
-6 -0 -12 -1 -6 -6 -2 -5 -2 -5 -5 -1 -6 -10 -3 -0 -0 -1 -0 -0 -2 -5 -2 -5 -11 -6 -3 -0 -0 -4 -12 -7 -17 -26 -38 -31 -24 -29 -23 -26 -17 -11 -10
-1 -12 -24 -5 -2 -9 -7 -4 -0 -0 -10 -0 -6 -0 -0 -0 -0 -0 -1 -6 -0 -0 -0 -0 -0 -0 -0 -0 -0 -0 -0 -0 -1 -6 -8 -9 -4 -1 -1 -2 -2 -3 -0
-0 -7 -32 -32 -44 -30 -1 -0 -15 -46 -69 -0 -0 -0 -11 -2 -22 -0 -0 -0 -0 -1 -2 -0 -0 -1 -2 -0 -0 -0 -0 -1 -0 -0 -0 -0 -0 -0 -0 -0 -0 -0 -1
-0 -1 -13 -21 -43 -34 -26 -23 -22 -7 -2 -0 -0 -0 -0 -11 -6 -0 -0 -0 -0 -0 -0 -0 -0 -0 -0 -0 -0 -2 -16 -3 -0 -0 -0 -8 -0 -2 -1 -0 -0 -0 -0
-2 -0 -27 -6 -0 -0 -17 -13 -15 -11 -5 -4 -2 -4 -0 -35 -0 -0 -0 -2 -6 -3 -2 -2 -7 -0 -0 -2 -3 -3 -5 -10 -0 -0 -0 -1 -0 -0 -1 -1 -0 -0 -0
-4 -3 -48 -0 -0 -3 -9 -3 -2 -1 -0 -0 -8 -0 -0 -13 -4 -0 -0 -2 -0 -0 -0 -0 -0 -0 -0 -0 -2 -2 -1 -9 -0 -0 -0 -0 -0 -0 -0 -0 -0 -0 -0
-4 -4 -0 -0 -0 -1 -7 -0 -9 -0 -0 -0 -0 -2 -0 -0 -0 -0 -0 -2 -1 -0 -0 -0 -0 -0 -0 -0 -1 -0 -1 -0 -0 -0 -0 -0 -0 -0 -0 -14 -36 -44 -48
-0 -0 -0 -0 -0 -0 -0 -0 -0 -0 -0 -0 -3 -0 -2 -0 -0 -0 -0 -0 -0 -0 -0 -0 -0 -0 -0 -0 -0 -0 -0 -0 -0 -0 -0 -0 -0 -0 -0 -0 -0 -0 -0
-0 -0 -10 -6 -4 -0 -0 -1 -4 -8 -5 -0 -10 -0 -0 -1 -0 -0 -0 -0 -0 -0 -0 -0 -6 -7 -6 -16 -0 -0 -0 -0 -0 -0 -0 -0 -0 -0 -0 -0 -0 -0 -0
-1 -3 -0 -0 -0 -0 -2 -0 -4 -2 -0 -0 -0 -0 -0 -0 -0 -0 -0 -0 -0 -0 -0 -4 -4 -7 -0 -0 -0 -0 -0 -0 -0 -0 -0 -0 -0 -0 -0 -0 -0 -0 -0
-2 -0 -0 -0 -0 -0 -0 -0 -0 -0 -0 -0 -0 -0 -0 -0 -0 -0 -0 -0 -0 -0 -0 -0 -0 -0 -0 -0 -0 -0 -0 -0 -0 -0 -0 -0 -0 -0 -0 -0 -0 -0 -0
-0 -0 -0 -0 -0 -0 -0 -0 -0 -0 -0 -0 -0 -0 -0 -0 -0 -0 -0 -0 -0 -0 -0 -0 -1 -2 -2 -2 -3 -0 -0 -0 -0 -0 -0 -0 -0 -0 -0 -0 -0 -0 -0
-0 -0 -0 -1 -5 -5 -3 -2 -1 -5 -0 -0 -0 -0 -0 -0 -0 -0 -0 -0 -0 -0 -0 -3 -5 -2 -7 -0 -0 -4 -3 -0 -0 -5 -0 -0 -0 -0 -0 -0 -0 -0 -0
-12 -34 -0 -0 -0 -0 -2 -1 -1 -1 -4 -34 -0 -0 -0 -0 -0 -0 -0 -0 -0 -0 -0 -0 -5 -5 -1 -0 -2 -3 -7 -4 -8 -2 -0 -0 -0 -0 -0 -0 -0 -8 -12
-0 -0 -0 -3 -1 -1 -0 -2 -5 -4 -1 -6 -0 -0 -0 -0 -0 -0 -0 -0 -0 -0 -0 -0 -0 -0 -4 -13 -9 -3 -2 -1 -18 -0 -0 -0 -0 -0 -0 -0 -0 -11 -15
-2 -2 -5 -0 -0 -13 -10 -15 -12 -9 -5 -0 -0 -0 -0 -0 -0 -0 -0 -0 -0 -0 -0 -0 -0 -0 -0 -4 -1 -1 -1 -3 -7 -0 -0 -0 -0 -0 -0 -0 -0 -0 -0
-14 -3 -21 -21 -28 -0 -0 -8 -18 -9 -1 -0 -0 -0 -0 -0 -0 -0 -0 -0 -0 -0 -0 -0 -0 -0 -1 -5 -2 -2 -6 -6 -0 -0 -0 -0 -0 -0 -0 -0 -0 -0 -0
-8 -1 -0 -30 -23 -8 -14 -22 -4 -0 -1 -0 -0 -0 -0 -0 -0 -0 -0 -0 -0 -0 -2 -1 -1 -0 -2 -0 -3 -10 -0 -0 -0 -0 -0 -0 -0 -0 -0 -0 -0 -0 -0
-1 -3 -0 -15 -23 -7 -11 -6 -2 -0 -0 -0 -0 -0 -0 -0 -0 -0 -0 -0 -0 -2 -3 -0 -4 -0 -0 -0 -0 -0 -0 -0 -0 -0 -0 -0 -0 -0 -0 -0 -0 -0 -0
-0 -1 -0 -1 -2 -1 -3 -0 -1 -3 -0 -0 -0 -0 -0 -0 -0 -0 -0 -0 -0 -1 -4 -6 -1 -0 -0 -0 -0 -0 -0 -0 -0 -0 -0 -0 -0 -0 -0 -0 -0 -0 -0
Wind_Speed
11 13 22 23 26 17 1 5 4 3 6 10 9 10 12 15 17 22 23 28 29 24 26 20 18 18 18 16 28 26 26 26 30 27 25 30 32 32 36 33 36 35 35
15 18 20 21 21 22 24 6 6 7 7 9 8 13 14 20 23 23 19 24 30 34 32 nan nan nan 25 26 28 29 30 31 35 31 28 30 31 33 33 36 31 36 37
20 21 20 24 22 21 19 15 18 15 10 15 16 14 15 nan nan nan nan nan nan nan nan nan nan nan nan nan 27 29 28 28 30 26 26 30 33 31 36 40 nan nan 39
22 22 23 24 23 22 21 16 14 13 14 11 nan nan 19 22 nan nan nan nan nan nan nan nan nan nan nan nan nan nan 24 nan 26 28 nan 30 31 31 33 35 nan nan nan
27 32 32 28 22 23 20 17 16 15 15 14 nan 15 nan nan nan nan nan nan nan nan nan nan nan nan nan nan nan nan nan nan nan nan nan nan 26 26 25 23 22 nan nan
24 30 32 28 28 23 22 21 20 19 15 16 16 16 16 nan nan nan nan nan nan nan nan nan nan nan nan nan nan nan nan nan nan nan nan nan 29 nan nan nan nan nan nan
28 24 27 29 30 26 20 17 17 19 22 19 nan nan nan nan nan nan nan nan nan nan nan nan nan nan nan nan nan nan nan nan nan nan nan nan nan nan nan nan nan nan nan
25 22 26 25 23 19 14 18 23 25 nan nan nan nan nan nan nan nan nan nan nan nan nan nan nan nan nan nan nan nan nan nan nan nan nan nan nan nan nan nan nan nan nan
21 21 24 21 25 24 23 23 nan nan nan nan nan nan nan nan nan nan nan nan nan nan nan nan nan nan nan nan nan nan nan nan nan nan nan nan nan nan nan nan nan nan nan
26 28 31 nan nan nan nan nan nan nan nan nan nan nan nan nan nan nan nan nan nan nan nan nan nan nan nan nan nan nan nan nan nan nan nan nan nan nan nan nan nan nan nan
26 31 33 nan nan nan nan nan nan nan nan nan nan nan nan nan nan nan nan nan nan nan nan nan nan nan nan nan nan nan nan nan nan nan nan nan nan nan nan nan nan nan nan
29 29 32 nan nan nan nan nan nan nan nan nan nan nan nan nan nan nan nan nan nan nan nan nan nan nan nan nan nan nan nan nan nan nan nan nan nan nan nan nan nan nan nan
34 nan nan nan nan nan nan nan nan nan nan nan nan nan nan nan nan nan nan nan nan nan nan nan nan nan nan nan nan nan nan nan nan nan nan nan nan nan nan nan nan nan nan
nan nan nan 35 nan nan nan nan nan nan nan nan nan nan nan nan nan nan nan nan nan nan nan nan nan nan nan nan nan nan nan nan nan nan nan nan nan nan nan nan nan nan nan
nan nan nan nan nan nan nan nan nan nan nan nan nan nan nan nan nan nan nan nan nan nan nan nan nan nan nan nan nan nan nan nan nan nan nan nan nan nan nan nan nan nan nan
nan nan nan nan nan nan nan nan nan nan nan nan nan nan nan nan nan nan nan nan nan nan nan nan nan nan nan nan nan nan nan nan nan nan nan nan nan nan nan nan nan nan nan
nan nan nan nan nan nan nan nan nan nan nan nan nan nan nan nan nan nan nan nan nan nan nan nan nan nan nan nan nan nan nan nan nan nan nan nan nan nan nan nan nan nan nan
nan nan nan nan nan nan nan nan nan nan nan nan nan nan nan nan nan nan nan nan nan nan nan nan nan nan nan nan nan nan nan nan nan nan nan nan nan nan nan nan nan nan nan
nan nan nan nan nan nan nan nan nan nan nan nan nan nan nan nan nan nan nan nan nan nan nan nan nan nan nan nan nan nan nan nan nan nan nan nan nan nan nan nan nan nan nan
nan nan nan nan nan nan nan nan nan nan nan nan nan nan nan nan nan nan nan nan nan nan nan nan nan nan nan nan nan nan nan nan nan nan nan nan nan nan nan nan nan nan nan
nan nan nan nan nan nan nan nan nan nan nan nan nan nan nan nan nan nan nan nan nan nan nan nan nan nan nan nan nan nan nan nan nan nan nan nan nan nan nan nan nan nan nan
nan nan nan nan nan nan nan nan nan nan nan nan nan nan nan nan nan nan nan nan nan nan nan nan nan nan nan nan nan nan nan nan nan nan nan nan nan nan nan nan nan nan nan
nan nan nan nan nan nan nan nan nan nan nan nan nan nan nan nan nan nan nan nan nan nan nan nan nan nan nan nan nan nan nan nan nan nan nan nan nan nan nan nan nan nan nan
nan nan nan nan nan nan nan nan nan nan nan nan nan nan nan nan nan nan nan nan nan nan nan nan nan nan nan nan nan nan nan nan nan nan nan nan nan nan nan nan nan nan nan
nan nan nan nan nan nan nan nan nan nan nan nan nan nan nan nan nan nan nan nan nan nan nan nan nan nan nan nan nan nan nan nan nan nan nan nan nan nan nan nan nan nan nan
nan nan nan nan nan nan nan nan nan nan nan nan nan nan nan nan nan nan nan nan nan nan nan nan nan nan nan nan nan nan nan nan nan nan nan nan nan nan nan nan nan nan nan
Wind_Direction
348 15 350 357 6 6 5 220 172 208 216 217 221 257 238 235 240 243 242 233 235 237 237 232 244 253 258 268 234 265 268 263 264 269 269 263 267 273 278 276 279 278 280
354 360 353 356 5 2 11 337 257 277 260 254 264 225 239 236 230 235 240 229 233 237 235 nan nan nan 240 250 259 261 264 258 265 274 263 276 281 283 276 290 289 287 285
344 343 356 348 352 353 357 1 353 353 268 232 222 253 260 nan nan nan nan nan nan nan nan nan nan nan nan nan 249 257 257 258 266 271 278 273 276 274 274 278 nan nan 282
337 345 342 335 338 342 340 339 348 343 336 324 nan nan 253 266 nan nan nan nan nan nan nan nan nan nan nan nan nan nan 242 nan 260 271 nan 276 278 280 280 284 nan nan nan
327 336 329 331 327 316 316 323 326 339 345 323 nan 311 nan nan nan nan nan nan nan nan nan nan nan nan nan nan nan nan nan nan nan nan nan nan 279 276 277 274 281 nan nan
322 330 326 317 316 323 317 307 322 321 319 325 320 308 302 nan nan nan nan nan nan nan nan nan nan nan nan nan nan nan nan nan nan nan nan nan 251 nan nan nan nan nan nan
320 324 317 316 318 326 325 298 290 284 287 278 nan nan nan nan nan nan nan nan nan nan nan nan nan nan nan nan nan nan nan nan nan nan nan nan nan nan nan nan nan nan nan
320 318 311 314 326 334 314 286 281 280 nan nan nan nan nan nan nan nan nan nan nan nan nan nan nan nan nan nan nan nan nan nan nan nan nan nan nan nan nan nan nan nan nan
313 305 301 279 267 270 267 268 nan nan nan nan nan nan nan nan nan nan nan nan nan nan nan nan nan nan nan nan nan nan nan nan nan nan nan nan nan nan nan nan nan nan nan
287 282 276 nan nan nan nan nan nan nan nan nan nan nan nan nan nan nan nan nan nan nan nan nan nan nan nan nan nan nan nan nan nan nan nan nan nan nan nan nan nan nan nan
288 278 277 nan nan nan nan nan nan nan nan nan nan nan nan nan nan nan nan nan nan nan nan nan nan nan nan nan nan nan nan nan nan nan nan nan nan nan nan nan nan nan nan
290 286 286 nan nan nan nan nan nan nan nan nan nan nan nan nan nan nan nan nan nan nan nan nan nan nan nan nan nan nan nan nan nan nan nan nan nan nan nan nan nan nan nan
292 nan nan nan nan nan nan nan nan nan nan nan nan nan nan nan nan nan nan nan nan nan nan nan nan nan nan nan nan nan nan nan nan nan nan nan nan nan nan nan nan nan nan
nan nan nan 288 nan nan nan nan nan nan nan nan nan nan nan nan nan nan nan nan nan nan nan nan nan nan nan nan nan nan nan nan nan nan nan nan nan nan nan nan nan nan nan
nan nan nan nan nan nan nan nan nan nan nan nan nan nan nan nan nan nan nan nan nan nan nan nan nan nan nan nan nan nan nan nan nan nan nan nan nan nan nan nan nan nan nan
nan nan nan nan nan nan nan nan nan nan nan nan nan nan nan nan nan nan nan nan nan nan nan nan nan nan nan nan nan nan nan nan nan nan nan nan nan nan nan nan nan nan nan
nan nan nan nan nan nan nan nan nan nan nan nan nan nan nan nan nan nan nan nan nan nan nan nan nan nan nan nan nan nan nan nan nan nan nan nan nan nan nan nan nan nan nan
nan nan nan nan nan nan nan nan nan nan nan nan nan nan nan nan nan nan nan nan nan nan nan nan nan nan nan nan nan nan nan nan nan nan nan nan nan nan nan nan nan nan nan
nan nan nan nan nan nan nan nan nan nan nan nan nan nan nan nan nan nan nan nan nan nan nan nan nan nan nan nan nan nan nan nan nan nan nan nan nan nan nan nan nan nan nan
nan nan nan nan nan nan nan nan nan nan nan nan nan nan nan nan nan nan nan nan nan nan nan nan nan nan nan nan nan nan nan nan nan nan nan nan nan nan nan nan nan nan nan
nan nan nan nan nan nan nan nan nan nan nan nan nan nan nan nan nan nan nan nan nan nan nan nan nan nan nan nan nan nan nan nan nan nan nan nan nan nan nan nan nan nan nan
nan nan nan nan nan nan nan nan nan nan nan nan nan nan nan nan nan nan nan nan nan nan nan nan nan nan nan nan nan nan nan nan nan nan nan nan nan nan nan nan nan nan nan
nan nan nan nan nan nan nan nan nan nan nan nan nan nan nan nan nan nan nan nan nan nan nan nan nan nan nan nan nan nan nan nan nan nan nan nan nan nan nan nan nan nan nan
nan nan nan nan nan nan nan nan nan nan nan nan nan nan nan nan nan nan nan nan nan nan nan nan nan nan nan nan nan nan nan nan nan nan nan nan nan nan nan nan nan nan nan
nan nan nan nan nan nan nan nan nan nan nan nan nan nan nan nan nan nan nan nan nan nan nan nan nan nan nan nan nan nan nan nan nan nan nan nan nan nan nan nan nan nan nan
nan nan nan nan nan nan nan nan nan nan nan nan nan nan nan nan nan nan nan nan nan nan nan nan nan nan nan nan nan nan nan nan nan nan nan nan nan nan nan nan nan nan nan